H-2A DEB

基本信息
目录编号:
43371
目录名称:
H-2A DEB
国际标识:
2002-003F
轨道中心:
EARTH
物体状态:
已陨落(2026-01-03)
发射日期:
2002-02-04 UTC
轨道信息
数据来源: 国际轨道数据
星历时间: 2025-12-21T20:09:55+0800
半长轴: 7388.407km
偏心率: 0.1051687
轨道倾角: 28.767°
近地点辐角: 101.139°
升交点赤经: 57.989°
平近点角: 270.905°
近地点: 233.24km
远地点: 1787.3km
周期: 105.338分钟
每日圈数: 13.670253
详细信息
发射场:
TNSTA
轨道高度:
LEO
数据来源:
AOE Integration Group
参考系:
TEME
时间系统:
UTC
历元类型:
SGP4
2D轨道图
3D轨道图
轨道高度分析图
轨道倾角分析图
轨道综合分析图
查看轨道综合分析图